Regional Weather Roundup
Issued by NWS Lake Charles, LA

Home | Current Version | Previous Version | Text Only | Print | Product List | Glossary On
Versions: 1 2 3 4 5 6 7 8 9 10 11 12 13 14 15 16 17 18 19 20 21 22 23 24 25 26 27 28 29 30 31 32 33 34 35 36 37 38 39 40 41 42 43 44 45 46 47 48 49 50
405
ASUS44 KLCH 231410
RWRLCH
REGIONAL WEATHER ROUNDUP
NATIONAL WEATHER SERVICE LAKE CHARLES LA
900 AM CDT THU MAR 23 2017

Note: "fair" indicates few or no clouds below 12,000 feet with no
significant weather and/or obstructions to visibility.


ACROSS SOUTHEAST TEXAS

CITY           SKY/WX    TMP DP  RH WIND       PRES   REMARKS
BEAUMONT       MOSUNNY   69  67  93 S6        30.17R
BEAUMONT CITY  PTSUNNY  N/A N/A N/A CALM      30.18R
ORANGE         SUNNY     69  68  97 S5        30.19R
JASPER           N/A     67  66  95 S3        30.21R
$$

ACROSS CENTRAL LOUISIANA

CITY           SKY/WX    TMP DP  RH WIND       PRES   REMARKS
LEESVILLE      PTSUNNY   67  64  91 S6        30.19R
FULLERTON      FAIR      68  63  84 VRB5      30.17R
ALEXANDRIA INT CLOUDY    65  61  87 VRB5      30.19R
ESLER FIELD    CLOUDY    63  62  97 CALM      30.20R
DERIDDER       CLOUDY    67  66  96 SE5       30.21R
OAKDALE        CLOUDY    65  65  97 CALM      30.21R FOG
OPELOUSAS      FAIR      66  65  95 MISG      30.21S
$$

ACROSS SOUTHWEST AND SOUTH CENTRAL LOUISIANA

CITY           SKY/WX    TMP DP  RH WIND       PRES   REMARKS
SULPHUR        SUNNY     68  68 100 CALM      30.19R
LAKE CHARLES   LGT RAIN  61  61 100 CALM      30.18R VSB 1/4
CHENNAULT INT  FOG       61  61 100 CALM      30.19R VSB 0
CAMERON PHI    SUNNY     72  68  88 S6        30.17R
DEQUINCY       FOG       62  61  99 CALM      30.19R VSB 1/4
JENNINGS       FOG       62  62 100 NE6       30.20R VSB<1/4
LAFAYETTE      MOSUNNY   71  66  84 N6        30.21R
NEW IBERIA     MOSUNNY   68  64  87 VRB6      30.21S
ABBEVILLE      CLOUDY    64  64 100 N6        30.21R
PATTERSON      CLOUDY    65  65 100 N5        30.21R
SALT POINT       N/A     65  65 100 NE5       30.19R
$$

SELECTED SITES ACROSS THE REGION

CITY           SKY/WX    TMP DP  RH WIND       PRES   REMARKS
HOUSTON BUSH   PTSUNNY   70  67  90 SE8       30.15R
HOUSTON HOBBY  MOSUNNY   69  67  93 SE5       30.15R
GALVESTON      PTSUNNY   73  68  84 S10       30.17R
COLLEGE STAT   CLOUDY    65  65 100 S12       30.13R
CONROE         MOSUNNY   65  65 100 SE6       30.16R FOG
HUNTSVILLE     MOSUNNY   68  63  84 S9        30.15R
LUFKIN         PTSUNNY   66  64  93 S9        30.16R
SHREVEPORT     CLOUDY    67  61  81 S8        30.16R
MONROE         SUNNY     65  54  67 VRB3      30.21S
NATCHEZ MS     SUNNY     66  48  52 SE9       30.21S
BATON ROUGE    SUNNY     66  58  75 E7        30.21R
N.O. INTL ARPT SUNNY     70  61  73 E9        30.20R
SLIDELL        SUNNY     66  54  65 VRB7      30.22R
$$

MARINE REPORTS

STATION/POSITION TIME  SKY/WX   TEMP    WIND        PRES    VSBY
                                AIR SEA DIR/SP/G
                 (UTC)          (F)     (DEG/KT/KT) (MB)    (MI)
BUOY 30 S HIGH I 1350            71 72  160/ 12/ 12 1021.4R
WVE H/P(F/S)=  2/ 6

SEA RIM ST PARK  1300            70     180/  8/ 10 1021.7R
PORT ARTHUR      1348               70  170/  5/  8 1021.9R
SABINE PASS N    1348            71 73  170/  8/ 10 1023.1R
TEXAS POINT      NOT AVBL
CALCASIEU PASS   1348            71 72  200/  5/  7   N/A
LK CHARLES BEACH 1348            62 74              1022.5R
MARSH ISLAND     1300            70                   N/A
FRESH WATER LOCK 1348            66 72   40/  6/ 10 1022.4R
AMERADA PASS     1348            64 57   10/  2/  6 1022.6R
$$




USA.gov is the U.S. government's official web portal to all federal, state and local government web resources and services.